www.pogodaiklimat.ru

Погода и климат >> Архив погоды >> Малайзия >> Куала-Лумпур


АРХИВ ПОГОДЫ в Куала-Лумпуре

Время (UTC), дата Ветер
(напр.,м/с)
 
Видим.   Явления Облачность Т
(С)
Тd
(С)
f
(%)
Тe
(С)
Тes
(С)
Комфортность P
(гПа)
Po
(гПа)
Тmin
(С)
Tmax
(С)
R
(мм)
R24
(мм)
S
(см)
21 18.06 штиль 0 10 км зарница 9/4 150 м
[Cb cap Ac trans Ci sp]
+27.3 +25.3 89 +40 +40 очень
душно
1008.9 1006.4
00 19.06 В 2 10 км мгла 9/3 50 м
[Cb cap Ac lent Ci sp]
+27.7 +25.1 86 +40 +41 очень
душно
1010.3 1007.8 +26.3
03 19.06 ЮВ 3 12 км мгла 9/3 540 м
[Cu med, cong Ac lent Ci sp]
+30.9 +24.8 70 +44 +48 опасность
перегрева
1010.7 1008.2
06 19.06 ЮВ 4 12 км мгла 9/5 500 м
[Cb calv Ac lent Ci sp]
+32.3 +24.4 63 +45 +48 опасность
перегрева
1008.8 1006.3
09 19.06 ЮВ 4 12 км мгла 9/1 540 м
[Cu hum Ac lent Ci sp]
+32.1 +24.5 64 +45 +47 опасность
перегрева
1006.8 1004.3
12 19.06 Ю 4 10 км зарница 9/3 500 м
[Cb cap Ac lent Ci sp]
+29.6 +24.4 74 +42 +42 опасность
перегрева
1007.9 1005.4 +33.6
15 19.06 ЮВ 2 10 км мгла 8/1 800 м
[Sc Ac trans Ci fib]
+28.9 +23.3 72 +39 +39 очень
душно
1010.1 1007.6
18 19.06 ЮВ 2 10 км мгла 9/1 750 м
[Sc Ac trans Ci fib]
+28.4 +24.6 80 +40 +40 очень
душно
1009.6 1007.1
21 19.06 Ю 2 10 км мгла 9/4 720 м
[Sc Ac lent Ci sp]
+28.2 +24.6 81 +40 +40 очень
душно
1008.7 1006.2
00 20.06 ЮВ 2 11 км осадки на расстоянии 9/5 500 м
[Cb cap Ac lent Ci sp]
+27.9 +25.7 88 +41 +42 опасность
перегрева
1010.4 1007.9 +27.7
03 20.06 ЮВ 3 12 км мгла {дождь} 9/3 500 м
[Cb calv Ac lent Ci fib]
+31.0 +25.7 73 +46 +50 опасность
перегрева
1011.4 1008.9
06 20.06 Ю 4 11 км мгла 9/4 500 м
[Cb calv Ac lent Ci fib]
+32.4 +25.4 67 +47 +51 опасность
перегрева
1009.0 1006.5 2
09 20.06 В 2 5000 м гроза, ливневой дождь 10/5 150 м
[Cb cap Ac lent Ci sp]
+25.9 +25.0 95 +37 +39 очень
душно
1008.0 1005.5
12 20.06 В 1 7000 м в посл. час дождь {гроза, ливн. осадки} 9/5 150 м
[Cb cap Ac lent Cs]
+26.4 +25.4 94 +38 +38 очень
душно
1008.7 1006.2 +33.4 8
15 20.06 штиль 0 9000 м мгла 9/3 800 м
[Sc Ac lent Ci sp]
+26.3 +25.4 95 +38 +38 очень
душно
1010.8 1008.3
18 20.06 штиль 0 10 км зарница 9/3 500 м
[Cb cap Ac lent Ci sp]
+25.9 +25.1 95 +37 +37 очень
душно
1009.0 1006.5
21 20.06 штиль 0 10 км мгла 9/3 800 м
[Sc Ac lent Ci sp]
+25.5 +24.6 95 +36 +36 очень
душно
1008.6 1006.1
00 21.06 З 2 10 км мгла 9/5 500 м
[Cb cap Ac lent Ci sp]
+25.9 +24.5 92 +36 +37 очень
душно
1010.1 1007.6 +25.2 10
03 21.06 ЮВ 2 8000 м мгла 9/5 500 м
[Cb cap Ac lent Ci sp]
+29.4 +25.3 79 +43 +47 опасность
перегрева
1010.5 1008.0
06 21.06 Ю 1 10 км мгла 9/5 500 м
[Cb cap Ac lent Ci sp]
+30.9 +25.1 71 +44 +51 опасность
перегрева
1008.7 1006.2
09 21.06 З 4 10 км мгла 9/4 500 м
[Cb cap Ac lent Ci sp]
+32.1 +26.2 71 +48 +50 опасность
перегрева
1006.8 1004.3
12 21.06 В 2 10 км в посл. час гроза 9/5 720 м
[Sc diur, vesp Ac lent Ci sp]
+27.4 +25.2 88 +40 +40 очень
душно
1008.3 1005.8 +32.1
15 21.06 штиль 0 10 км мгла 9/3 720 м
[Sc Ac lent Ci sp]
+26.6 +25.2 92 +38 +38 очень
душно
1009.7 1007.2
18 21.06 штиль 0 7000 м мгла 9/1 720 м
[Sc Ac lent Ci sp]
+26.3 +25.1 93 +38 +38 очень
душно
1009.1 1006.6
21 21.06 штиль 0 7000 м зарница 9/3 500 м
[Cb cap Ac lent Ci sp]
+26.0 +25.1 95 +37 +37 очень
душно
1008.1 1005.6
00 22.06 СЗ 1 8000 м гроза, ливневой дождь 10/6 500 м
[Cb cap Ac und Cs]
+23.6 +23.1 97 +31 +32 очень
душно
1009.7 1007.2 +23.4 30
03 22.06 С 2 9000 м мгла {гроза, дождь} 9/5 240 м
[Cu Sc Ac und Cs]
+25.8 +24.0 90 +36 +40 очень
душно
1010.5 1008.0
06 22.06 СВ 1 10 км мгла {гроза, дождь} 9/4 540 м
[Cu Sc Ac lent Ci sp]
+30.3 +24.3 70 +42 +50 опасность
перегрева
1007.7 1005.2 2
09 22.06 СЗ 2 10 км мгла 9/4 540 м
[Cu Sc Ac lent Ci sp]
+32.3 +24.4 63 +45 +47 опасность
перегрева
1006.5 1004.0
12 22.06 З 2 10 км мгла 9/3 800 м
[Sc diur, vesp Ac lent Ci sp]
+29.5 +24.2 73 +41 +41 опасность
перегрева
1007.9 1005.4 +32.6
15 22.06 штиль 0 10 км зарница 9/1 500 м
[Cb cap Ac trans Ci sp]
+27.1 +25.2 89 +39 +39 очень
душно
1009.3 1006.8
18 22.06 штиль 0 7000 м мгла 9/4 150 м
[Sc Ac lent Ci sp]
+26.6 +25.3 93 +39 +39 очень
душно
1009.5 1007.0
21 22.06 штиль 0 7000 м зарница 9/4 150 м
[Cb cap Ac lent Ci sp]
+26.1 +25.2 95 +38 +38 очень
душно
1007.7 1005.2
00 23.06 штиль 0 9000 м мгла 9/4 500 м
[Cb cap Ac lent Ci sp]
+26.1 +25.2 95 +38 +38 очень
душно
1009.0 1006.5 +23.5 2
03 23.06 Ю 2 11 км мгла 9/4 500 м
[Cb cap Ac lent Ci sp]
+30.2 +23.8 69 +42 +47 опасность
перегрева
1009.3 1006.8
06 23.06 З 4 500 м дождь {ливн. осадки} 9/6 150 м
[Cb cap Ac lent Cs]
+27.2 +25.3 89 +39 +43 очень
душно
1008.0 1005.5 2
09 23.06 В 1 10 км мгла {гроза, дождь} 9/3 500 м
[Cb cap Ac lent Ci sp]
+31.1 +25.4 72 +45 +48 опасность
перегрева
1006.7 1004.2
12 23.06 ЮВ 1 10 км мгла {гроза, дождь} 9/4 800 м
[Sc Ac lent Ci sp]
+29.0 +25.6 82 +43 +43 опасность
перегрева
1007.0 1004.5 +32.1 0.0
15 23.06 штиль 0 10 км мгла 9/3 800 м
[Sc Ac lent Ci sp]
+27.7 +25.8 89 +41 +41 опасность
перегрева
1009.6 1007.1
18 23.06 штиль 0 10 км мгла 8/1 800 м
[Sc Ac lent Ci fib]
+26.8 +25.0 90 +39 +39 очень
душно
1009.3 1006.8
21 23.06 В 1 10 км мгла 6/3 800 м
[Sc Ac lent Ci fib]
+26.3 +23.9 87 +36 +36 очень
душно
1008.3 1005.8
00 24.06 ЮВ 1 13 км мгла 8/3 100 м
[Sc Ac lent Ci fib]
+26.8 +24.5 87 +38 +38 очень
душно
1010.2 1007.7 +26.1 2
03 24.06 Ю 6 13 км мгла 9/4 500 м
[Cb cap Ac lent Ci fib]
+31.2 +22.3 59 +40 +42 очень
душно
1011.7 1009.2
06 24.06 Ю 4 13 км мгла 9/1 540 м
[Cu hum Ac trans Ci fib]
+32.7 +22.7 56 +43 +49 опасность
перегрева
1008.9 1006.4
09 24.06 Ю 5 13 км мгла 9/1 540 м
[Cu hum Ac lent Ci fib]
+32.9 +23.3 57 +43 +45 опасность
перегрева
1007.3 1004.8
12 24.06 ЮВ 2 10 км мгла 9/1 800 м
[Sc Ac lent Ci sp]
+30.3 +23.7 68 +41 +41 опасность
перегрева
1008.5 1006.0 +33.6
15 24.06 В 1 10 км мгла 9/1 800 м
[Sc Ac lent Ci sp]
+29.1 +24.4 76 +41 +41 опасность
перегрева
1010.7 1008.2
18 24.06 штиль 0 9000 м мгла 9/1 800 м
[Sc Ac lent Ci sp]
+27.6 +24.3 82 +39 +39 очень
душно
1010.0 1007.5
21 24.06 ЮВ 1 9000 м зарница 9/3 500 м
[Cb cap Ac lent Ci sp]
+27.1 +24.4 85 +38 +38 очень
душно
1009.7 1007.2
00 25.06 штиль 0 10 км мгла 9/4 500 м
[Cb cap Ac lent Ci sp]
+27.4 +24.8 86 +39 +40 очень
душно
1011.4 1008.9 +26.7
03 25.06 ЮВ 5 12 км мгла 9/4 540 м
[Cu med, cong Ac trans Ci sp]
+31.2 +25.3 71 +45 +48 опасность
перегрева
1011.9 1009.4
06 25.06 Ю 6 12 км мгла 9/4 500 м
[Cb cap Ac trans Ci sp]
+32.9 +24.9 63 +46 +49 опасность
перегрева
1009.7 1007.2
09 25.06 Ю 4 13 км мгла 9/3 500 м
[Cb cap Ac trans Ci sp]
+32.4 +23.1 58 +43 +45 опасность
перегрева
1008.1 1005.6
12 25.06 ЮВ 2 10 км мгла 9/1 720 м
[Sc Ac lent Ci sp]
+30.8 +24.9 71 +44 +44 опасность
перегрева
1009.5 1007.0 +33.8
15 25.06 СВ 1 10 км мгла 9/1 720 м
[Sc Ac lent Ci sp]
+29.3 +25.1 78 +42 +42 опасность
перегрева
1011.3 1008.8

 

Местоположение метеостанции Куала-Лумпур (Малайзия): широта 3.12 долгота 101.55 высота над уровнем моря 22 м.

В архиве по умолчанию представлена погода в Куала-Лумпуре за последнюю неделю. Архивные данные за месяц целиком и за предыдущие месяцы, начиная с января 2011 года, Вы можете получить, выбрав интересующий диапазон дат из раскрывающегося списка и нажав кнопку "Ввод!".


*Определитесь, кто Вы:
робот инопланетянин человек

Внимание! Время в таблицах - всемирное. Для получения местного времени необходимо прибавить поправку, которая равна 7 ч.

Смотрите также архив погоды в соседних городах и на ближайших метеорологических станциях:

Погода в Куала-Лумпур аэропорту (Малайзия) (48 км)
Погода в Малакке (Малайзия) (122 км)
Погода на Нагорье Кэмерон (Малайзия) (151 км)
Погода в Ситаване (Малайзия) (155 км)
Погода в Ипохе (Малайзия) (169 км)
Погода в Куантане (Малайзия) (198 км)
Погода в Пенанге (Малайзия) (282 км)
Погода в Аэропорту Сеная (Малайзия) (288 км)
Погода на Авиабазе Баттерворт (Малайзия) (292 км)
Погода в Пеканбару (Индонезия) (295 км)

Пояснения к столбцам:

Ветер - указаны скорость ветра в м/с - средняя за 10 мин, порывы в срок и между сроками (в фигурных скобках) и направление, откуда дует ветер: С - северный, СВ - северо-восточный, В - восточный, ЮВ - юго-восточный, Ю - южный, ЮЗ - юго-западный, З - западный, СЗ - северо-западный.
Видимость - горизонтальная дальность видимости в метрах или километрах. При видимости от 1 до 10 км при отсутствии осадков обычно наблюдается дымка, при ухудшении видимости до 1 км и менее - туман. В сухую погоду видимость может ухудшаться дымом, пылью или мглою.
Явления - указаны атмосферные явления, наблюдавшиеся в срок или в последний час перед сроком; фигурными скобками обозначены явления, наблюдавшиеся между сроками (за 1-3 часа до срока); квадратными скобками обозначены град или гололедные отложения с указанием их диаметра в мм.
Облачность - указаны через наклонную черту общая и нижняя облачность в баллах и высота нижней границы облаков в метрах; квадратными скобками обозначены формы облаков: Ci - перистые, Cs - перисто-слоистые, Cc - перисто-кучевые, Ac - высококучевые, As - высокослоистые, Sc - слоисто-кучевые, Ns - слоисто-дождевые, Cu - кучевые, Cb - кучево-дождевые. Подробнее классификацию облаков см. в Атласе облаков (PDF).
T - Температура воздуха - температура, измеренная на высоте 2 м над землей.
Td - Температура точки росы - температура, при понижении до которой содержащийся в воздухе водяной пар достигнет насыщения.
f - Относительная влажность воздуха - влажноcть воздуха, измеренная на высоте 2 м над землей.
Te - Эффективная температура - температура, которую ощущает одетый по сезону человек в тени. Характеристика душности погоды. При расчете учитывается влияние влажности воздуха и скорости ветра на теплоощущения человека.
Tes - Эффективная температура на солнце - температура, которую ощущает человек, с поправкой на солнечный нагрев. Характеристика знойности погоды. Зависит от высоты солнца над горизонтом, облачности и скорости ветра. Ночью, в пасмурную погоду, а также при ветре 12 м/с и более поправка равна нулю.
P - Атмосферное давление - приведенное к уровню моря атмосферное давление.
Po - Атмосферное давление - измеренное на уровне метеостанции атмосферное давление.
Tmin - Минимальная температура - минимум температуры воздуха на высоте 2 м над землей.
Tmax - Максимальная температура - максимум температуры воздуха на высоте 2 м над землей.
R - Количество осадков - Количество выпавших осадков за период времени, мм. При наведении курсора мыши на число - период времени, за который выпало указанное количество осадков.
R24 - Количество осадков - Количество выпавших осадков за 24 часа, мм.
S - Снежный покров - Высота снежного покрова, см. При наведении курсора мыши на число - состояние снежного покрова и степень покрытия местности в баллах.